Location: Malvern Link
(52.1333°N, 2.3000°W)
Time: 01:32:14
(UTC+00:00)

ATLAS CENTAUR R/B - Pass Details

Date: 18 September 2020
Orbit: 479 x 667 km, 64.7° (Epoch: 12 October)

Event Time Altitude Azimuth Distance (km) Brightness Sun altitude
Rises 22:46:46 0° 317° (NW) 2,569 5.7 -34.1°
Reaches altitude 10° 22:49:30 10° 337° (NNW) 1,671 4.6 -34.3°
Enters shadow 22:49:51 11° 342° (NNW) 1,579 4.4 -34.3°
